Regional Weather Roundup
Issued by NWS

Home | Current Version | Previous Version | Text Only | Print | Product List | Glossary Off
Versions: 1 2 3 4 5 6 7 8 9 10 11 12 13 14 15 16 17 18 19 20 21 22 23 24 25 26 27 28 29 30 31 32 33 34 35 36 37 38 39 40 41 42 43 44 45 46 47 48 49 50

000
ASUS45 KPSR 231210
RWRAZ

ARIZONA REGIONAL HOURLY WEATHER ROUNDUP
NATIONAL WEATHER SERVICE PHOENIX AZ
500 AM MST THU OCT 23 2014

NOTE: FAIR INDICATES FEW OR NO CLOUDS BELOW 12,000 FEET WITH NO
SIGNIFICANT WEATHER AND/OR OBSTRUCTIONS TO VISIBILITY.

AZZ001>003-036-231300-
NORTHWEST ARIZONA

CITY           SKY/WX    TMP DP  RH WIND       PRES   REMARKS
BULLHEAD CITY  PTCLDY    64  37  36 SE5       29.98R
KINGMAN        PTCLDY    50  39  66 SE5       30.11R
6HR MIN TEMP:  48; 6HR MAX TEMP:  58;

$$

AZZ004>008-015-016-018-231300-
NORTH CENTRAL ARIZONA

CITY           SKY/WX    TMP DP  RH WIND       PRES   REMARKS
GRAND CANYON   PTCLDY    29  23  78 CALM      30.28F HAZE
6HR MIN TEMP:  29; 6HR MAX TEMP:  32;

PRESCOTT       CLEAR     46  37  71 S6        30.20F
6HR MIN TEMP:  45; 6HR MAX TEMP:  56;

FLAGSTAFF      PTCLDY    33  29  85 CALM      30.31R FOG
6HR MIN TEMP:  33; 6HR MAX TEMP:  39;

PAYSON         CLEAR     52  41  66 N3        30.23R
PAGE           CLEAR     55  30  38 S3        30.17R
6HR MIN TEMP:  53; 6HR MAX TEMP:  61;

$$

AZZ009>014-017-231300-
NORTHEAST ARIZONA

CITY           SKY/WX    TMP DP  RH WIND       PRES   REMARKS
WINSLOW        CLEAR     44  37  76 SE5       30.22R
6HR MIN TEMP:  42; 6HR MAX TEMP:  53;

SAINT JOHNS    CLEAR     48  40  73 S3        30.25R
6HR MIN TEMP:  47; 6HR MAX TEMP:  53;

WINDOW ROCK    PTCLDY    33  27  78 CALM      30.32R
6HR MIN TEMP:  32; 6HR MAX TEMP:  45;

SHOW LOW       CLEAR     41  37  87 S5        30.30R
$$

AZZ023-231300-
GREATER PHOENIX AREA

CITY           SKY/WX    TMP DP  RH WIND       PRES   REMARKS
PHOENIX        CLEAR     69  52  54 E3        29.97R
6HR MIN TEMP:  69; 6HR MAX TEMP:  76;

BUCKEYE          N/A     59  45  58 CALM      29.97S
LUKE AFB       CLEAR     63  48  56 N8        29.97R
6HR MIN TEMP:  63; 6HR MAX TEMP:  70;

DEER VALLEY    CLEAR     66  47  50 CALM      29.98R
6HR MIN TEMP:  65; 6HR MAX TEMP:  74;

SCOTTSDALE     CLEAR     66  53  63 CALM      30.00R
6HR MIN TEMP:  66; 6HR MAX TEMP:  75;

MESA-GATEWAY   CLEAR     63  52  67 E8        30.00S
$$

AZZ027-028-231300-
SOUTHWEST MARICOPA COUNTY AND PINAL COUNTY

CITY           SKY/WX    TMP DP  RH WIND       PRES   REMARKS
CASA GRANDE    CLEAR     61  45  55 CALM      29.99R
6HR MIN TEMP:  59; 6HR MAX TEMP:  70;

GILA BEND      FAIR      62  47  57 SE5       29.96R
6HR MIN TEMP:  62; 6HR MAX TEMP:  73;

$$

AZZ503-504-507>509-231300-
SOUTHEAST ARIZONA

CITY           SKY/WX    TMP DP  RH WIND       PRES   REMARKS
TUCSON         CLEAR     61  48  62 SE8       30.07R
6HR MIN TEMP:  61; 6HR MAX TEMP:  70;

DAVIS-MONTHAN  CLEAR     60  47  63 SE7       30.05S
6HR MIN TEMP:  60; 6HR MAX TEMP:  66;

NOGALES        CLEAR     50  43  77 CALM      30.12R
6HR MIN TEMP:  50; 6HR MAX TEMP:  58;

SIERRA VISTA   CLEAR     55  45  67 CALM      30.17R
DOUGLAS        CLEAR     47  44  90 CALM      30.15R
6HR MIN TEMP:  47; 6HR MAX TEMP:  57;

SAFFORD        CLEAR     54  50  86 CALM      30.10R
6HR MIN TEMP:  54; 6HR MAX TEMP:  63;

$$

AZZ020-021-025-026-031-231300-
SOUTHWEST ARIZONA

CITY           SKY/WX    TMP DP  RH WIND       PRES   REMARKS
YUMA           CLEAR     72  51  47 CALM      29.90
6HR MIN TEMP:  71; 6HR MAX TEMP:  80;

$$

CAZ031-033-041-043-047-048-061-231300-
SOUTHERN CALIFORNIA

CITY           SKY/WX    TMP DP  RH WIND       PRES   REMARKS
DOWNTOWN L.A.  CLEAR     61  55  81 CALM      29.93S
6HR MIN TEMP:  61; 6HR MAX TEMP:  67;

L.A. AIRPORT   CLEAR     62  61  96 CALM      29.94R
6HR MIN TEMP:  61; 6HR MAX TEMP:  68;

SAN DIEGO      CLEAR     62  57  83 N3        29.94S
6HR MIN TEMP:  62; 6HR MAX TEMP:  68;

BURBANK        CLEAR     60  45  57 CALM      29.94S
6HR MIN TEMP:  59; 6HR MAX TEMP:  67;

ONTARIO        CLEAR     63  45  51 CALM      29.95S
6HR MIN TEMP:  62; 6HR MAX TEMP:  69;

RIVERSIDE      CLEAR     61  43  51 NE6       29.96S
6HR MIN TEMP:  61; 6HR MAX TEMP:  68;

PALM SPRINGS   CLEAR     73  28  18 NW6       29.94S
6HR MIN TEMP:  72; 6HR MAX TEMP:  77;

EL CENTRO NAS  CLEAR     65  35  33 W9        29.89S
6HR MIN TEMP:  65; 6HR MAX TEMP:  72;

IMPERIAL       CLEAR     65  43  44 W7        29.89R
6HR MIN TEMP:  65; 6HR MAX TEMP:  72;

BLYTHE         CLEAR     65  43  44 N7        29.93R
6HR MIN TEMP:  64; 6HR MAX TEMP:  80;

NEEDLES        CLEAR     66  39  37 SW3       29.98R
6HR MIN TEMP:  66; 6HR MAX TEMP:  75;

$$

NVZ020-UTZ003-231300-
SOUTHERN NEVADA-UTAH

CITY           SKY/WX    TMP DP  RH WIND       PRES   REMARKS
LAS VEGAS      PTCLDY    63  30  28 S8        30.01R
6HR MIN TEMP:  62; 6HR MAX TEMP:  70;

SALT LAKE CITY PTCLDY    45  34  65 SE9       30.12F
6HR MIN TEMP:  43; 6HR MAX TEMP:  48;

$$

NMZ009-TXZ055-231300-
NEW MEXICO-WEST TEXAS

CITY           SKY/WX    TMP DP  RH WIND       PRES   REMARKS
ALBUQUERQUE    CLEAR     53  44  71 CALM      30.22R
6HR MIN TEMP:  52; 6HR MAX TEMP:  62;

EL PASO        CLEAR     58  53  84 CALM      30.15R
6HR MIN TEMP:  56; 6HR MAX TEMP:  63;

$$


........................KEY........................
SKY/WX - SKY CONDITION/WEATHER
TMP    - TEMPERATURE IN FAHRENHEIT
DP     - DEW POINT IN FAHRENHEIT
RH     - RELATIVE HUMIDITY IN PERCENT
WIND   - DIRECTION AND SPEED IN MILES PER HOUR (MPH)
VRB    - VARIABLE WIND DIRECTION
PRES   - MEAN SEA LEVEL PRESSURE IN INCHES OF MERCURY
         F - FALLING PRESSURE   R - RISING PRESSURE
         S - STEADY PRESSURE
VSB    - VISIBILITY IN MILES
HX     - HEAT INDEX IN FAHRENHEIT
WCI    - WIND CHILL INDEX IN FAHRENHEIT
TC     - TEMPERATURE IN CELSIUS WHICH IS ALSO KNOWN AS
         TEMPERATURE IN CENTIGRADE
AFB    - AIR FORCE BASE
         LUKE AFB IS LUKE AIR FORCE BASE
         DAVIS-MONTHAN IS DAVIS-MONTHAN AIR FORCE BASE
NAS    - NAVAL AIR STATION
         EL CENTRO NAS IS EL CENTRO NAVAL AIR STATION
N/A    - NOT AVAILABLE



USA.gov is the U.S. government's official web portal to all federal, state and local government web resources and services.